TimeEST,TemperatureF,Dew PointF,Humidity,Sea Level PressureIn,VisibilityMPH,Wind Direction,Wind SpeedMPH,Gust SpeedMPH,PrecipitationIn,Events,Conditions,WindDirDegrees,DateUTC
12:53 AM,17.1,1.0,50,29.89,10.0,NW,17.3,32.2,N/A,,Clear,310,2013-02-18 05:53:00
1:53 AM,16.0,1.9,54,29.93,10.0,WNW,18.4,32.2,N/A,,Clear,300,2013-02-18 06:53:00
2:53 AM,16.0,1.9,54,29.94,10.0,NW,13.8,27.6,N/A,,Clear,310,2013-02-18 07:53:00
3:53 AM,16.0,1.0,52,29.96,10.0,NW,10.4,27.6,N/A,,Clear,310,2013-02-18 08:53:00
4:53 AM,16.0,1.0,52,30.01,10.0,WNW,11.5,18.4,N/A,,Clear,300,2013-02-18 09:53:00
5:53 AM,16.0,-0.0,49,30.04,10.0,NW,13.8,21.9,N/A,,Clear,310,2013-02-18 10:53:00
7:53 AM,16.0,-0.0,49,30.12,10.0,NW,8.1,16.1,N/A,,Clear,310,2013-02-18 12:53:00
9:53 AM,21.0,-0.9,38,30.13,10.0,NW,13.8,21.9,N/A,,Clear,310,2013-02-18 14:53:00
10:53 AM,24.1,-2.0,32,30.14,10.0,NW,19.6,26.5,N/A,,Clear,320,2013-02-18 15:53:00
11:53 AM,25.0,-0.0,34,30.15,10.0,WNW,12.7,25.3,N/A,,Clear,300,2013-02-18 16:53:00
12:53 PM,28.9,-0.9,28,30.14,10.0,West,12.7,23.0,N/A,,Clear,280,2013-02-18 17:53:00
1:53 PM,30.0,-0.9,27,30.13,10.0,NW,15.0,26.5,N/A,,Clear,310,2013-02-18 18:53:00
2:53 PM,30.9,-0.0,27,30.12,10.0,NW,10.4,18.4,N/A,,Clear,320,2013-02-18 19:53:00
3:53 PM,33.1,-0.9,23,30.13,10.0,West,11.5,19.6,N/A,,Clear,280,2013-02-18 20:53:00
4:53 PM,32.0,1.0,27,30.14,10.0,WNW,12.7,17.3,N/A,,Clear,290,2013-02-18 21:53:00
5:53 PM,30.9,1.0,28,30.16,10.0,WNW,4.6,-,N/A,,Clear,300,2013-02-18 22:53:00
6:53 PM,30.0,3.0,32,30.17,10.0,NW,3.5,-,N/A,,Clear,310,2013-02-18 23:53:00
7:53 PM,25.0,10.0,53,30.18,10.0,Calm,Calm,-,N/A,,Clear,0,2013-02-19 00:53:00
8:53 PM,28.9,3.0,33,30.18,10.0,NW,3.5,-,N/A,,Clear,310,2013-02-19 01:53:00
9:53 PM,21.9,10.0,60,30.20,10.0,Calm,Calm,-,N/A,,Clear,0,2013-02-19 02:53:00
10:53 PM,23.0,10.9,60,30.19,10.0,South,3.5,-,N/A,,Clear,190,2013-02-19 03:53:00
11:53 PM,23.0,12.0,63,30.20,10.0,Calm,Calm,-,N/A,,Clear,0,2013-02-19 04:53:00